sat.trackr.live / text

‹ back to catalog

STARLINK-3887

NORAD 52484 · 2022-049AK

PAYLOAD ACTIVE UNKNOWN

§ Identity

Operator
Country
US
Launch date
2022-05-06
Launch site
AFETR
Launch vehicle
Mass (kg)
RCS (m²)

Purposes: comms

External: N2YO · Heavens-Above · Gunter

§ Orbital elements

Epoch: 2026-09-19T12:55:18.496128Z

Period
93.79 min
Inclination
53.1591°
Eccentricity
0.0001294
Mean motion
15.35401837 rev/d
Perigee alt
458.8 km
Apogee alt
460.6 km
Semi-major
6,837.9 km
B*
1.8919e-5
RAAN
258.0335°
Arg perigee
96.9207°
Mean anomaly
263.1943°
Rev number
24,166

§ Raw data

STARLINK-38871 52484U 22049AK  26262.53840852  .00000279  00000+0  18919-4 0  99922 52484  53.1591 258.0335 0001294  96.9207 263.1943 15.35401837241668

JSON: /api/v1/satellites/52484 · /tle

For live sub-satellite position, see the globe view (requires WebGL).

§ Visibility from observer

Set your observer location to see the next 7 days of passes ≥ 10°. The values pass through the URL so the page stays shareable.

No JS? Fill the form by hand. The geolocation button needs JavaScript.